Location: Colonia Mina de C?rbuni
(46.1667°N, 22.7167°E)
Time: 13:30:44
(UTC+00:00)

Vanguard 1 - Pass Details

Date: 14 April 2024
Orbit: 652 x 3825 km, 34.2° (Epoch: 25 May)

Event Time Altitude Azimuth Distance (km) Brightness Sun altitude
Exits shadow 00:51:32 - 176° (S) 7,563 14.2 -25.9°
Reaches altitude 10° 01:02:10 10° 151° (SSE) 6,303 14.0 -24.7°
Maximum altitude 01:05:43 11° 140° (SE) 5,999 14.0 -24.3°
Drops below altitude 10° 01:09:00 10° 129° (SE) 5,808 14.0 -23.9°
Sets 01:18:21 0° 98° (E) 5,930 14.6 -22.7°
